Flag for Japan Weather past 2 weeks in Yokosuka, Japan

Now
88 °F

Passing clouds.


Feels Like: 100 °F
Forecast: 78 / 87 °F
Wind: 9 mph from South

Location: Tokyo International Airport

Current Time: Jul 28, 2015 at 7:39:48 PM

Latest Report: Jul 28, 2015 at 7:00 PM


Visibility: N/A

Pressure: 29.68 "Hg

Humidity: 70%

Dew point: 77 °F

Location of YokosukaLocation

Historic Weather in Yokosuka — Graph

°F

Yokosuka temperature yesterday

Maximum temperature yesterday: 91 °F (at 11:30 AM)
Minimum temperature yesterday: 79 °F (at 1:30 AM)
Average temperature yesterday: 85 °F

Past Weeks' High & Low Weather Summary

 TemperatureHumidityPressure
High95 °F (Jul 26, 2:30 PM)100% (Jul 16, 4:30 AM)29.95 "Hg (Jul 16, 4:30 AM)
Low75 °F (Jul 17, 12:00 AM)52% (Jul 21, 1:30 PM)29.65 "Hg (Jul 13, 6:00 PM)
Average83 °F77%29.79 "Hg
* Reported Jul 13 6:00 PM — Jul 28 6:30 PM, Yokosuka, Weather by CustomWeather, © 2015

Note: Actual official high and low records may vary slightly from our data, if they occured in-between our weather recording intervals... More about our weather records

Advertising

Yokosuka weather history for previous 24 hours

 ConditionsComfort  
Time TempWeatherWind HumidityBarometerVisibility
6:30 PM
Tue, Jul 28
86 °FPartly sunny.10 mph75%29.68 "HgN/A
6:00 PM86 °FScattered clouds.12 mph79%29.65 "HgN/A
5:30 PM88 °FPartly sunny.13 mph75%29.65 "HgN/A
5:00 PM88 °FPartly sunny.13 mph75%29.65 "HgN/A
4:30 PM90 °FPartly sunny.13 mph63%29.65 "HgN/A
4:00 PM90 °FScattered clouds.13 mph63%29.65 "HgN/A
3:30 PM90 °FScattered clouds.14 mph67%29.65 "HgN/A
3:00 PM90 °FPassing clouds.10 mph67%29.65 "HgN/A
2:30 PM90 °FPassing clouds.10 mph63%29.65 "HgN/A
2:00 PM90 °FPassing clouds.12 mph67%29.65 "HgN/A
1:30 PM90 °FScattered clouds.12 mph63%29.65 "HgN/A
1:00 PM90 °FScattered clouds.6 mph67%29.68 "HgN/A
12:30 PM90 °FScattered clouds.10 mph67%29.68 "HgN/A
12:00 PM88 °FPassing clouds.7 mph75%29.68 "HgN/A
11:30 AM86 °FScattered clouds.9 mph79%29.68 "HgN/A
11:00 AM86 °FPartly sunny.9 mph79%29.68 "HgN/A
10:30 AM86 °FBroken clouds.8 mph79%29.68 "HgN/A
10:00 AM84 °FPartly sunny.6 mph84%29.71 "HgN/A
9:30 AM84 °FBroken clouds.3 mph84%29.68 "HgN/A
9:00 AM82 °FBroken clouds.6 mph89%29.68 "HgN/A
8:30 AM82 °FBroken clouds.3 mph84%29.71 "Hg6 mi
8:00 AM82 °FPartly sunny.8 mph84%29.71 "Hg6 mi
7:30 AM82 °FBroken clouds.7 mph84%29.71 "Hg6 mi
7:00 AM82 °FBroken clouds.9 mph84%29.68 "HgN/A
6:30 AM82 °FPartly sunny.8 mph84%29.68 "HgN/A
6:00 AM81 °FBroken clouds.9 mph89%29.68 "HgN/A
5:30 AM81 °FPartly sunny.7 mph84%29.68 "HgN/A
5:00 AM82 °FBroken clouds.6 mph84%29.68 "HgN/A
4:30 AM81 °FPassing clouds.7 mph84%29.68 "HgN/A
4:00 AM81 °FPassing clouds.7 mph89%29.65 "HgN/A
3:30 AM81 °FPassing clouds.7 mph84%29.65 "HgN/A
3:00 AM81 °FPassing clouds.6 mph89%29.65 "HgN/A
2:30 AM81 °FPassing clouds.7 mph84%29.65 "HgN/A
2:00 AM82 °FPassing clouds.8 mph79%29.65 "HgN/A
1:30 AM81 °FPassing clouds.9 mph84%29.65 "HgN/A
1:00 AM82 °FClear.12 mph79%29.65 "Hg10 mi
12:30 AM82 °FClear.10 mph84%29.68 "Hg10 mi
12:00 AM82 °FClear.13 mph79%29.68 "Hg10 mi
11:30 PM
Mon, Jul 27
82 °FClear.14 mph84%29.68 "Hg10 mi
11:00 PM82 °FClear.13 mph84%29.68 "Hg10 mi
10:30 PM82 °FClear.13 mph84%29.68 "Hg10 mi
10:00 PM82 °FClear.13 mph84%29.68 "Hg10 mi
9:30 PM82 °FClear.14 mph84%29.68 "Hg10 mi
9:00 PM82 °FClear.15 mph84%29.68 "Hg10 mi
8:30 PM84 °FClear.14 mph79%29.68 "Hg10 mi
8:00 PM86 °FClear.14 mph70%29.68 "Hg10 mi
7:30 PM84 °FPassing clouds.15 mph79%29.68 "HgN/A
7:00 PM86 °FPassing clouds.18 mph75%29.68 "HgN/A
Weather by CustomWeather, © 2015

See weather overviewHow to use our weather pages